Location: ????????
(56.1167°N, 38.6333°E)
Time: 20:18:42
(UTC+00:00)

Cosmos 2227 Rocket - Pass Details

Date: 18 November 2025
Orbit: 839 x 842 km, 71.0° (Epoch: 14 December)

Event Time Altitude Azimuth Distance (km) Brightness Sun altitude
Rises 14:02:13 0° 276° (W) 3,398 6.5 -6.9°
Reaches altitude 10° 14:05:16 10° 292° (WNW) 2,465 5.3 -7.3°
Maximum altitude 14:09:32 21° 341° (NNW) 1,797 3.9 -7.9°
Drops below altitude 10° 14:13:48 10° 30° (NNE) 2,468 4.2 -8.4°
Enters shadow 14:14:57 - 38° (NE) 2,797 4.4 -8.5°
